#timestamp,LO_Frequency,Hit,StdDev 
1509285615.1,286047003.4,N
1509285635.8,286047004.7,N
1509285655.7,286047003.6,N
1509285675.5,286047001.4,N
1509285695.3,286047007.2,N
1509285715.2,286047005.9,N
1509285735.9,286046999.8,N
1509285755.7,286046997.0,N
1509285775.6,286046993.3,N
1509285795.4,286046991.8,N
1509285815.2,286046992.3,N
1509285835.1,286046992.7,N
1509285836.0,286046992.7,N
1509285855.8,286046994.1,N
1509285875.6,286046996.2,N
1509285895.5,286046993.3,N
1509285915.3,286046992.4,N
1509285935.1,286046992.9,N
1509285955.9,286046992.2,N
1509285975.7,286046991.1,N
1509285995.5,286046987.9,N
1509286015.4,286046987.1,N
1509286035.2,286046987.9,N
1509286055.0,286046988.1,N
1509286055.9,286046988.1,N
1509286075.8,286046990.9,N
1509286095.6,286046992.4,N
1509286115.4,286046990.2,N
1509286135.3,286046984.1,N
1509286155.1,286046988.4,N
1509286175.9,286046990.0,N
1509286195.7,286046985.6,N
1509286215.5,286046986.3,N
1509286235.4,286046983.7,Y
1509286255.2,286046993.5,P
1509286275.0,286046992.1,P
1509286275.9,286046992.1,P
1509286295.8,286046988.5,Y
1509286315.6,286046996.1,P
1509286335.4,286047000.7,N
1509286355.3,286046998.5,N
1509286375.1,286046998.4,N
1509286395.9,286047001.0,N
1509286415.7,286046996.8,N
1509286435.5,286046993.3,N
1509286455.3,286046993.3,N
1509286475.2,286046994.3,N
1509286495.0,286046992.2,N
1509286495.9,286046992.2,N
1509286515.8,286046991.1,N
1509286535.6,286046991.2,N
1509286555.4,286046989.8,Y
1509286575.3,286046993.5,P
1509286595.1,286046996.2,P
1509286615.8,286046992.5,P
1509286635.7,286046992.6,Y
1509286655.5,286047002.7,P
1509286675.3,286047005.0,N
1509286695.2,286047005.3,N
1509286715.0,286047004.8,N
1509286715.9,286047004.8,N
1509286735.7,286047006.0,N
1509286755.6,286047003.4,N
1509286775.4,286047000.7,N
1509286795.2,286046998.7,N
1509286815.1,286047005.9,N
1509286816.0,286047005.9,N
1509286835.8,286047007.6,N
1509286855.7,286047002.7,N
1509286875.5,286047004.0,N
1509286895.3,286047001.5,N
1509286915.2,286047001.4,N
1509286935.9,286047005.2,N
1509286955.7,286047003.2,N
1509286975.6,286047002.2,N
1509286995.4,286046998.6,N
1509287015.2,286046997.3,N
1509287035.1,286046996.6,N
1509287036.0,286046996.6,N
1509287055.8,286046997.2,N
1509287075.6,286046996.8,N
1509287095.5,286046993.7,N
1509287115.3,286046995.3,N
1509287135.1,286046996.0,N
1509287155.9,286046995.8,N
1509287175.7,286046995.0,N
1509287195.5,286046996.1,N
1509287215.4,286046997.5,N
1509287235.2,286046996.6,N
1509287255.0,286046996.9,N
1509287255.9,286046996.9,N
1509287275.8,286046997.7,N
1509287295.6,286046999.6,N
1509287315.4,286046999.1,N
1509287335.3,286047001.3,N
1509287355.1,286047005.1,N
1509287375.8,286047008.6,N
1509287395.7,286047006.5,N
1509287415.5,286047004.6,N
1509287435.3,286047006.6,N
1509287455.2,286047006.1,N
1509287475.0,286047006.2,N
1509287475.9,286047006.2,N
1509287495.8,286047010.5,N
1509287515.6,286047007.7,N
1509287535.4,286047006.3,N
1509287555.3,286047004.8,N
1509287575.1,286047009.1,N
1509287576.0,286047009.1,N
1509287595.8,286047005.9,N
1509287615.7,286047003.8,N
1509287635.5,286047002.9,N
1509287655.3,286047006.1,N
1509287675.2,286047011.5,N
1509287695.9,286047009.6,N
1509287715.7,286047010.3,N
1509287735.6,286047010.1,N
1509287755.4,286047011.4,N
1509287775.2,286047013.0,N
1509287795.1,286047011.4,N
1509287796.0,286047011.4,N
1509287815.8,286047008.5,N
1509287835.6,286047008.8,N
1509287855.5,286047004.8,N
1509287875.3,286047002.5,N
1509287895.1,286047002.7,N
1509287915.9,286047001.0,N
1509287935.7,286047000.6,N
1509287955.5,286047000.6,N
1509287975.4,286046997.1,N
1509287995.2,286046997.0,N
1509288015.0,286046996.7,N
1509288016.0,286046996.7,N
1509288035.8,286047002.2,N
1509288055.6,286047000.7,N
1509288075.5,286046999.5,N
1509288095.3,286046996.6,N
1509288115.1,286046996.5,N
1509288135.9,286046999.0,N
1509288155.7,286046996.8,N
1509288175.5,286046998.9,N
1509288195.4,286046999.4,N
1509288215.2,286047000.4,N
1509288235.0,286046998.2,N
1509288235.9,286046998.2,N
1509288255.8,286047000.8,N
1509288275.6,286046998.5,N
1509288295.4,286047003.8,N
1509288315.3,286047003.7,N
1509288335.1,286047001.6,N
1509288336.0,286047001.6,N
1509288355.8,286047002.5,N
1509288375.7,286047003.9,N
1509288395.5,286047004.8,N
1509288415.3,286047005.4,N
1509288435.2,286047005.3,N
1509288455.9,286047006.5,N
1509288475.7,286047006.8,N
1509288495.6,286047002.7,N
1509288515.4,286046998.4,N
1509288535.2,286046999.7,N
1509288555.1,286046998.7,N
1509288556.0,286046998.7,N
1509288575.8,286047002.2,N
1509288595.6,286046998.3,N
1509288615.5,286046998.3,N
1509288635.3,286047003.5,N
1509288655.1,286047006.0,N
1509288675.9,286047005.6,N
1509288695.7,286047005.0,N
1509288715.5,286047005.3,N
1509288735.4,286047004.0,N
1509288755.2,286047000.2,N
1509288775.0,286047004.0,N
1509288775.9,286047004.0,N
1509288795.8,286047001.6,N
1509288815.6,286047001.6,N
1509288835.4,286047002.3,N
1509288855.3,286047000.4,N
1509288875.1,286046999.0,N
1509288895.8,286046999.6,N
1509288915.7,286046995.0,N
1509288935.5,286046994.2,N
1509288955.4,286046997.6,N
1509288975.2,286046995.5,N
1509288995.0,286046995.4,N
1509288995.9,286046995.4,N
1509289015.8,286046995.8,N
1509289035.6,286046993.9,N
1509289055.4,286046995.5,N
1509289075.3,286046994.5,N
1509289095.1,286046990.4,N
1509289096.0,286046990.4,N
1509289115.8,286046996.4,N
1509289135.7,286046990.2,N
1509289155.5,286046994.2,N
1509289175.3,286046992.3,N
1509289195.2,286046992.0,N
